Flag for France Weather past 2 weeks in Besançon, France

Now
39 °F

Clear.


Feels Like: 34 °F
Forecast: 34 / 43 °F
Wind: 8 mph from Northwest

Location: Dole Tavaux

Current Time: Mar 4, 2015 at 9:56:24 AM

Latest Report: Mar 4, 2015 at 9:00 AM


Visibility: N/A

Pressure: 30.36 "Hg

Humidity: 81%

Dew point: 34 °F

Location of BesançonLocation

Historic Weather in Besançon — Graph

°F

Besançon temperature yesterday

Maximum temperature yesterday: 54 °F (at 2:00 PM)
Minimum temperature yesterday: 34 °F (at 7:30 AM)
Average temperature yesterday: 44 °F

Past Weeks' High & Low Weather Summary

 TemperatureHumidityPressure
High55 °F (Feb 20, 2:30 PM)100% (Feb 20, 12:30 AM)30.66 "Hg (Feb 20, 12:30 AM)
Low27 °F (Feb 28, 5:00 AM)36% (Feb 20, 3:30 PM)29.59 "Hg (Feb 21, 4:00 AM)
Average40 °F79%30.08 "Hg
* Reported Feb 17 8:00 AM — Mar 4 8:30 AM, Besançon, Weather by CustomWeather, © 2015

Note: Actual official high and low records may vary slightly from our data, if they occured in-between our weather recording intervals... More about our weather records

Advertising

Besançon weather history for previous 24 hours

 ConditionsComfort  
Time TempWeatherWind HumidityBarometerVisibility
8:30 AM
Wed, Mar 4
37 °FClear.5 mph81%30.36 "HgN/A
8:00 AM37 °FClear.3 mph81%30.36 "HgN/A
7:30 AM37 °FClear.6 mph87%30.33 "HgN/A
7:00 AM39 °FOvercast.7 mph81%30.33 "HgN/A
6:30 AM39 °FOvercast.7 mph81%30.33 "HgN/A
6:00 AM39 °FMostly cloudy.5 mph87%30.33 "HgN/A
5:30 AM41 °FClear.5 mph81%30.33 "HgN/A
5:00 AM41 °FMostly cloudy.2 mph87%30.33 "HgN/A
4:00 AM41 °FOvercast.No wind93%30.30 "HgN/A
3:30 AM41 °FMostly cloudy.1 mph93%30.30 "HgN/A
3:00 AM41 °FClear.2 mph93%30.30 "HgN/A
2:30 AM41 °FClear.1 mph93%30.30 "HgN/A
2:00 AM43 °FClear.2 mph87%30.27 "HgN/A
1:30 AM43 °FLight rain. Overcast.6 mph87%30.27 "HgN/A
1:00 AM43 °FLight rain. Overcast.10 mph87%30.27 "HgN/A
12:30 AM45 °FRain. Mostly cloudy.5 mph87%30.27 "HgN/A
12:00 AM45 °FRain. Mostly cloudy.5 mph87%30.24 "HgN/A
11:30 PM
Tue, Mar 3
45 °FRain. Mostly cloudy.6 mph87%30.24 "HgN/A
11:00 PM46 °FLight rain. Overcast.7 mph76%30.24 "HgN/A
10:30 PM46 °FLight rain. Mostly cloudy.6 mph76%30.24 "HgN/A
10:00 PM48 °FLight rain. Clear.6 mph71%30.21 "HgN/A
9:30 PM48 °FClear.7 mph66%30.21 "HgN/A
8:30 PM46 °FClear.8 mph71%30.21 "HgN/A
8:00 PM46 °FClear.8 mph71%30.21 "HgN/A
7:30 PM46 °FClear.6 mph71%30.21 "HgN/A
7:00 PM46 °FClear.7 mph71%30.21 "HgN/A
6:30 PM46 °FClear.7 mph71%30.18 "HgN/A
6:00 PM50 °FClear.7 mph62%30.18 "HgN/A
5:30 PM52 °FClear.9 mph54%30.18 "HgN/A
5:00 PM52 °FClear.12 mph50%30.18 "HgN/A
4:30 PM54 °FClear.13 mph47%30.18 "HgN/A
4:00 PM52 °FClear.13 mph50%30.21 "HgN/A
3:30 PM54 °FBroken clouds.13 mph51%30.21 "HgN/A
3:00 PM54 °FScattered clouds.13 mph51%30.21 "HgN/A
2:30 PM54 °FClear.14 mph47%30.21 "HgN/A
2:00 PM54 °FPassing clouds.15 mph51%30.21 "HgN/A
1:30 PM52 °FPassing clouds.14 mph58%30.24 "HgN/A
1:00 PM52 °FScattered clouds.13 mph58%30.24 "HgN/A
12:30 PM50 °FMostly cloudy.14 mph62%30.24 "HgN/A
12:00 PM50 °FPartly sunny.10 mph67%30.24 "HgN/A
11:30 AM50 °FPartly sunny.10 mph67%30.24 "HgN/A
11:00 AM48 °FPartly sunny.9 mph71%30.24 "HgN/A
10:30 AM46 °FScattered clouds.9 mph82%30.24 "HgN/A
10:00 AM45 °FClear.9 mph81%30.24 "HgN/A
9:30 AM45 °FClear.8 mph81%30.24 "HgN/A
9:00 AM41 °FClear.5 mph87%30.24 "HgN/A
Weather by CustomWeather, © 2015

See weather overviewHow to use our weather pages